Вернуться в каталог

SL-8 DEB *

АктивенLEO
NORAD 14813·DEBRIS·🇷🇺 Russia

Запущен Aug 3, 1983 с Plesetsk Cosmodrome

Loading…

Ближайшие Пролёты (ближайшие 24 часа)

TLE

СвежийSource: Space-Track

Эпоха: Sep 14, 2026, 08:41 UTC

1 14813U 83079C   26257.36247597  .00000705  00000-0  19070-3 0  9991
2 14813  74.0309 117.1814 0014427  90.4530 323.9529 14.49521197356149

Отслеживайте SL-8 DEB * в реальном времени с AllMySat

Download on the App Store